Charlotte, NC

4:17 AM EST on February 20, 2017 (GMT -0500)
Charlotte-Douglas International

Weather History for KCLT - September, 2014

Change the Weather History Date:

Tuesday, September 30, 2014

  Actual Average Record
Temperature  
Mean Temperature 71 °F 66 °F  
Max Temperature 83 °F 77 °F 91 °F (1926)
Min Temperature 59 °F 55 °F 38 °F (1888)
Degree Days  
Heating Degree Days 0 2  
Month to date heating degree days 12 21  
Since 1 July heating degree days 12 23  
Cooling Degree Days 6 3  
Month to date cooling degree days 233 198  
Year to date cooling degree days 1588 1475  
Growing Degree Days 20 (Base 50)    
Moisture  
Dew Point 60 °F    
Average Humidity 70    
Maximum Humidity 100    
Minimum Humidity 40    
Precipitation  
Precipitation 0.00 in 0.12 in 3.65 in (1979)
Month to date precipitation 3.99 3.24  
Year to date precipitation 37.75 31.84  
Snow  
Snow 0.00 in 0.00 in 0.00 in ()
Month to date snowfall 0.0 0.0  
Since 1 July snowfall 0.0 0.0  
Since 1 September snowfall 0.0 0.0  
Snow Depth 0.00 in    
Sea Level Pressure  
Sea Level Pressure 29.93 in    
Wind  
Wind Speed 1 mph (NW)    
Max Wind Speed 9 mph    
Max Gust Speed 13 mph    
Visibility 6 miles    
Events Fog    
T = Trace of Precipitation, MM = Missing Value Source: NWS Daily Summary

Daily Weather History Graph

Daily Weather History Graph

Search for Another Location

Airport or City:

Trip Planner

Search our weather history database for the weather conditions in past years. The results will help you decide how hot, cold, wet, or windy it might be!

Date:

Astronomy

Sep. 30, 2014 Rise Set
Actual Time 7:17 AM EDT 7:09 PM EDT
Civil Twilight 6:52 AM EDT 7:34 PM EDT
Nautical Twilight 6:23 AM EDT 8:03 PM EDT
Astronomical Twilight 5:53 AM EDT 8:33 PM EDT
Moon 1:14 PM EDT (9/30) 11:47 PM EDT (9/30)
Length of Visible Light 12h 41m
Length of Day
11h 51m
Waxing Crescent, 38% of the Moon is Illuminated
Sep 30
Waxing Crescent
Oct 1
First Quarter
Oct 8
Full
Oct 15
Last Quarter
Oct 23
New

Hourly Weather History & Observations

Time (EDT) Temp. Heat Index Dew Point Humidity Pressure Visibility Wind Dir Wind Speed Gust Speed Precip Events Conditions
12:52 AM 64.9 °F - 63.0 °F 93% 29.96 in 9.0 mi Calm Calm - N/A   Overcast
1:52 AM 63.0 °F - 61.0 °F 93% 29.96 in 7.0 mi Calm Calm - N/A   Mostly Cloudy
2:52 AM 61.0 °F - 60.1 °F 97% 29.94 in 6.0 mi WNW 4.6 mph - N/A   Scattered Clouds
3:32 AM 62.6 °F - 60.8 °F 94% 29.95 in 0.2 mi NNW 3.5 mph - N/A Fog Fog
3:52 AM 62.1 °F - 61.0 °F 96% 29.93 in 0.2 mi Calm Calm - N/A Fog Fog
4:52 AM 61.0 °F - 59.0 °F 93% 29.92 in 0.2 mi Calm Calm - N/A Fog Fog
5:50 AM 60.8 °F - 57.2 °F 88% 29.94 in 0.2 mi Calm Calm - N/A Fog Fog
5:52 AM 60.1 °F - 57.9 °F 93% 29.93 in 0.2 mi Calm Calm - N/A Fog Fog
6:02 AM 60.8 °F - 57.2 °F 88% 29.94 in 0.2 mi Calm Calm - N/A Fog Fog
6:52 AM 60.1 °F - 57.9 °F 93% 29.93 in 0.2 mi Calm Calm - N/A Fog Fog
7:27 AM 60.8 °F - 57.2 °F 88% 29.95 in 0.1 mi NNW 4.6 mph - N/A Fog Fog
7:52 AM 60.1 °F - 59.0 °F 96% 29.94 in 0.5 mi NNW 3.5 mph - N/A Fog Fog
8:36 AM 60.8 °F - 60.8 °F 100% 29.96 in 0.5 mi WNW 4.6 mph - N/A Fog Fog
8:52 AM 61.0 °F - 60.1 °F 97% 29.95 in 0.5 mi Calm Calm - N/A Fog Fog
9:14 AM 62.6 °F - 60.8 °F 94% 29.97 in 0.5 mi NW 4.6 mph - N/A Fog Fog
9:52 AM 63.0 °F - 61.0 °F 93% 29.95 in 0.5 mi Calm Calm - N/A Fog Fog
10:00 AM 62.6 °F - 60.8 °F 94% 29.97 in 2.0 mi Calm Calm - N/A   Overcast
10:21 AM 62.6 °F - 60.8 °F 94% 29.97 in 7.0 mi WNW 4.6 mph - N/A   Mostly Cloudy
10:42 AM 64.4 °F - 62.6 °F 94% 29.96 in 10.0 mi WNW 4.6 mph - N/A   Scattered Clouds
10:52 AM 68.0 °F - 62.1 °F 81% 29.95 in 10.0 mi West 3.5 mph - N/A   Scattered Clouds
11:52 AM 72.0 °F - 62.1 °F 71% 29.94 in 10.0 mi NW 3.5 mph - N/A   Scattered Clouds
12:52 PM 77.0 °F - 62.1 °F 60% 29.91 in 10.0 mi Variable 3.5 mph - N/A   Partly Cloudy
1:52 PM 80.1 °F 80.7 °F 59.0 °F 48% 29.89 in 10.0 mi WNW 3.5 mph - N/A   Partly Cloudy
2:52 PM 81.0 °F 81.1 °F 57.9 °F 45% 29.87 in 10.0 mi Calm Calm - N/A   Scattered Clouds
3:52 PM 82.0 °F 81.4 °F 55.0 °F 39% 29.86 in 10.0 mi NNW 3.5 mph - N/A   Partly Cloudy
4:52 PM 81.0 °F 81.0 °F 57.0 °F 44% 29.86 in 10.0 mi WNW 4.6 mph - N/A   Partly Cloudy
5:52 PM 80.1 °F 80.7 °F 59.0 °F 48% 29.86 in 10.0 mi West 3.5 mph - N/A   Partly Cloudy
6:52 PM 75.9 °F - 60.1 °F 58% 29.87 in 10.0 mi Calm Calm - N/A   Partly Cloudy
7:52 PM 72.0 °F - 61.0 °F 68% 29.88 in 10.0 mi Calm Calm - N/A   Partly Cloudy
8:52 PM 68.0 °F - 60.1 °F 76% 29.90 in 10.0 mi Calm Calm - N/A   Clear
9:52 PM 66.0 °F - 63.0 °F 90% 29.99 in 10.0 mi Calm Calm - N/A   Overcast
10:52 PM 64.9 °F - 61.0 °F 87% 29.92 in 10.0 mi Calm Calm - N/A   Partly Cloudy
11:52 PM 66.9 °F - 61.0 °F 81% 29.92 in 10.0 mi Calm Calm - N/A   Clear